Flag for Australia Weather past 2 weeks in Perth, Western Australia, Australia

Now
93 °F

Sunny.


Feels Like: 89 °F
Forecast: 76 / 96 °F
Wind: 14 mph from East

Location: Belmont Perth Airport

Current Time: Jan 27, 2015 at 11:41:04 AM

Latest Report: Jan 27, 2015 at 10:30 AM


Visibility: 10 mi

Pressure: 29.74 "Hg

Humidity: 17%

Dew point: 43 °F

Location of PerthLocation

Historic Weather in Perth — Graph

°F

Perth temperature yesterday

Maximum temperature yesterday: 97 °F (at 3:00 PM)
Minimum temperature yesterday: 61 °F (at 5:30 AM)
Average temperature yesterday: 80 °F

Past Weeks' High & Low Weather Summary

 TemperatureHumidityPressure
High102 °F (Jan 20, 3:30 PM)100% (Jan 14, 4:00 AM)30.04 "Hg (Jan 14, 4:00 AM)
Low57 °F (Jan 13, 3:00 AM)11% (Jan 12, 12:00 PM)29.71 "Hg (Jan 12, 12:30 PM)
Average77 °F48%29.88 "Hg
* Reported Jan 12 10:00 AM — Jan 27 10:00 AM, Perth, Weather by CustomWeather, © 2014

Note: Actual official high and low records may vary slightly from our data, if they occured in-between our weather recording intervals... More about our weather records

Advertising

Perth weather history for previous 24 hours

 ConditionsComfort  
Time TempWeatherWind HumidityBarometerVisibility
10:00 AM
Jan 27
93 °FSunny.13 mph17%29.74 "Hg10 mi
9:30 AM90 °FSunny.16 mph18%29.77 "Hg10 mi
9:00 AM88 °FSunny.16 mph22%29.77 "Hg10 mi
8:30 AM84 °FSunny.18 mph27%29.77 "Hg10 mi
8:00 AM79 °FSunny.17 mph32%29.77 "Hg10 mi
7:30 AM75 °FSunny.20 mph36%29.77 "Hg10 mi
7:00 AM73 °FSunny.22 mph38%29.77 "Hg10 mi
6:30 AM72 °FSunny.17 mph44%29.77 "Hg10 mi
6:00 AM72 °FSunny.21 mph41%29.77 "Hg10 mi
5:30 AM72 °FSunny.20 mph41%29.74 "Hg10 mi
5:00 AM72 °FSunny.23 mph44%29.74 "Hg10 mi
4:30 AM73 °FClear.21 mph38%29.74 "Hg10 mi
4:00 AM73 °FClear.22 mph38%29.74 "Hg10 mi
3:30 AM75 °FClear.20 mph36%29.74 "Hg10 mi
3:00 AM75 °FClear.21 mph36%29.74 "Hg10 mi
2:30 AM77 °FClear.23 mph34%29.71 "Hg10 mi
1:58 AM77 °FClear.24 mph34%29.71 "Hg10 mi
1:30 AM79 °FClear.24 mph30%29.71 "Hg10 mi
1:00 AM81 °FClear.24 mph26%29.74 "Hg10 mi
12:30 AM81 °FClear.24 mph24%29.74 "Hg10 mi
12:00 AM82 °FClear.25 mph19%29.74 "Hg10 mi
11:30 PM
Jan 26
84 °FClear.22 mph18%29.74 "Hg10 mi
11:00 PM84 °FClear.21 mph18%29.74 "Hg10 mi
10:30 PM86 °FClear.16 mph17%29.74 "Hg10 mi
10:00 PM86 °FClear.15 mph17%29.74 "Hg10 mi
9:30 PM86 °FClear.14 mph18%29.77 "Hg10 mi
9:00 PM86 °FClear.13 mph18%29.77 "Hg10 mi
8:30 PM86 °FClear.10 mph20%29.74 "Hg10 mi
8:00 PM88 °FClear.10 mph21%29.74 "Hg10 mi
7:30 PM90 °FClear.10 mph21%29.74 "Hg10 mi
7:00 PM91 °FClear.12 mph17%29.74 "Hg10 mi
6:30 PM95 °FClear.14 mph14%29.74 "Hg10 mi
6:00 PM95 °FSunny.12 mph14%29.74 "Hg10 mi
5:30 PM97 °FSunny.10 mph16%29.74 "Hg10 mi
5:00 PM97 °FSunny.13 mph14%29.74 "Hg10 mi
4:30 PM97 °FSunny.7 mph14%29.74 "Hg10 mi
4:00 PM97 °FSunny.13 mph16%29.74 "Hg10 mi
3:30 PM97 °FSunny.13 mph16%29.77 "Hg10 mi
3:00 PM97 °FSunny.12 mph16%29.77 "Hg10 mi
2:30 PM95 °FSunny.14 mph16%29.77 "Hg10 mi
2:00 PM93 °FSunny.15 mph19%29.80 "Hg10 mi
1:30 PM93 °FSunny.13 mph19%29.80 "Hg10 mi
1:00 PM91 °FSunny.13 mph21%29.83 "Hg10 mi
12:30 PM90 °FSunny.15 mph22%29.83 "Hg10 mi
12:00 PM90 °FSunny.15 mph22%29.83 "Hg10 mi
11:00 AM84 °FSunny.16 mph29%29.86 "Hg10 mi
Weather by CustomWeather, © 2014

See weather overviewHow to use our weather pages